Weather History for St. Petersburg Airport, FL

Change the Weather History Date:

Tuesday, January 1, 2008

  Actual Average Record
Temperature  
Mean Temperature 64 °F -  
Max Temperature 73 °F 72 °F 82 °F (1972)
Min Temperature 53 °F 58 °F 35 °F (1984)
Degree Days  
Heating Degree Days 1    
Growing Degree Days 14 (Base 50)    
Moisture  
Dew Point 62 °F    
Average Humidity 81    
Maximum Humidity 100    
Minimum Humidity 45    
Precipitation  
Precipitation 0.05 in - - ()
Sea Level Pressure  
Sea Level Pressure 30.15 in    
Wind  
Wind Speed 7 mph (NNW)    
Max Wind Speed 23 mph    
Max Gust Speed 31 mph    
Visibility 6 miles    
Events Rain    
Averages and records for this station are not official NWS values.
T = Trace of Precipitation, MM = Missing Value Source: NWS Daily Summary

Daily Weather History Graph

Daily Weather History Graph

Search for Another Location

Airport:

Trip Planner

Search our weather history database for the weather conditions in past years. The results will help you decide how hot, cold, wet, or windy it might be!

Date:

Astronomy

Jan. 01, 2008 Rise Set
Actual Time 7:21 AM EST 5:46 PM EST
Civil Twilight 6:56 AM EST 6:12 PM EST
Nautical Twilight 6:27 AM EST 6:41 PM EST
Astronomical Twilight 5:58 AM EST 7:09 PM EST
Moon 1:25 AM EST (1/1) 12:47 PM EST (1/1)
Length of Visible Light 11h 15m
Length of Day
10h 24m
Last Quarter, 37% of the Moon is Illuminated
Jan 1
Last Quarter
Jan 8
New
Jan 15
First Quarter
Jan 22
Full
Jan 30
Last Quarter

Hourly Weather History & Observations

Time (EST) Temp. Dew Point Humidity Pressure Visibility Wind Dir Wind Speed Gust Speed Precip Events Conditions
12:53 AM 72.0 °F 70.0 °F 93% 30.10 in 3.0 mi Calm Calm - N/A   Overcast
1:37 AM 71.6 °F 69.8 °F 94% 30.10 in 3.0 mi NW 3.5 mph - N/A   Overcast
1:53 AM 72.0 °F 71.1 °F 97% 30.10 in 3.0 mi Calm Calm - N/A   Overcast
2:36 AM 73.4 °F 71.6 °F 94% 30.10 in 2.5 mi NW 3.5 mph - 0.02 in Rain Light Rain
2:53 AM 73.0 °F 72.0 °F 96% 30.10 in 2.5 mi WNW 3.5 mph - 0.05 in Rain Light Rain
3:04 AM 71.6 °F 71.6 °F 100% 30.10 in 2.5 mi WNW 3.5 mph - 0.00 in   Overcast
3:19 AM 71.6 °F 71.6 °F 100% 30.09 in 3.0 mi Calm Calm - 0.00 in   Overcast
3:36 AM 71.6 °F 71.6 °F 100% 30.09 in 2.5 mi Calm Calm - 0.00 in   Overcast
3:46 AM 73.4 °F 71.6 °F 94% 30.09 in 3.0 mi Calm Calm - 0.00 in   Overcast
3:53 AM 73.0 °F 71.1 °F 93% 30.09 in 3.0 mi Calm Calm - 0.00 in   Overcast
4:33 AM 71.6 °F 69.8 °F 94% 30.08 in 2.5 mi NNW 4.6 mph - N/A   Overcast
4:42 AM 71.6 °F 71.6 °F 100% 30.08 in 4.0 mi NNW 3.5 mph - N/A   Overcast
4:53 AM 72.0 °F 71.1 °F 97% 30.08 in 4.0 mi NNW 5.8 mph - N/A   Overcast
5:09 AM 71.6 °F 71.6 °F 100% 30.08 in 1.8 mi NNW 6.9 mph - N/A   Overcast
5:28 AM 71.6 °F 71.6 °F 100% 30.08 in 2.0 mi North 4.6 mph - N/A   Overcast
5:36 AM 71.6 °F 69.8 °F 94% 30.08 in 1.0 mi North 3.5 mph - N/A   Overcast
5:44 AM 71.6 °F 69.8 °F 94% 30.08 in 0.8 mi North 3.5 mph - N/A   Overcast
5:51 AM 71.6 °F 69.8 °F 94% 30.08 in 1.2 mi NNW 5.8 mph - N/A   Overcast
5:53 AM 71.1 °F 70.0 °F 96% 30.09 in 1.5 mi NNW 4.6 mph - N/A   Overcast
5:57 AM 71.6 °F 69.8 °F 94% 30.09 in 3.0 mi NNW 6.9 mph - N/A   Overcast
6:53 AM 70.0 °F 69.1 °F 97% 30.13 in 10.0 mi NNW 12.7 mph - N/A   Overcast
7:00 AM 69.8 °F 69.8 °F 100% 30.12 in 10.0 mi NNW 11.5 mph - N/A   Overcast
7:53 AM 70.0 °F 66.9 °F 90% 30.16 in 10.0 mi NNW 11.5 mph - N/A   Overcast
7:58 AM 69.8 °F 66.2 °F 88% 30.16 in 10.0 mi NNW 9.2 mph - N/A   Overcast
8:31 AM 69.8 °F 64.4 °F 83% 30.16 in 8.0 mi North 10.4 mph - N/A   Mostly Cloudy
8:44 AM 69.8 °F 64.4 °F 83% 30.17 in 8.0 mi NNW 12.7 mph - N/A   Mostly Cloudy
8:53 AM 69.1 °F 64.9 °F 87% 30.18 in 8.0 mi North 12.7 mph - N/A   Mostly Cloudy
9:29 AM 69.8 °F 62.6 °F 78% 30.19 in 10.0 mi NNW 15.0 mph - N/A   Partly Cloudy
9:53 AM 68.0 °F 60.1 °F 76% 30.20 in 10.0 mi NNW 13.8 mph - N/A   Clear
10:53 AM 68.0 °F 57.9 °F 70% 30.21 in 10.0 mi North 15.0 mph - N/A   Clear
11:53 AM 68.0 °F 54.0 °F 61% 30.19 in 10.0 mi NNW 13.8 mph - N/A   Clear
12:53 PM 69.1 °F 52.0 °F 54% 30.18 in 10.0 mi NNW 19.6 mph - N/A   Clear
1:53 PM 66.9 °F 51.1 °F 57% 30.17 in 10.0 mi NW 17.3 mph 24.2 mph N/A   Clear
2:53 PM 66.0 °F 51.1 °F 59% 30.18 in 10.0 mi NNW 20.7 mph 31.1 mph N/A   Clear
3:53 PM 64.9 °F 52.0 °F 63% 30.19 in 10.0 mi NNW 19.6 mph 27.6 mph N/A   Clear
4:53 PM 63.0 °F 48.9 °F 60% 30.20 in 10.0 mi NW 19.6 mph 26.5 mph N/A   Clear
5:53 PM 62.1 °F 46.9 °F 58% 30.22 in 10.0 mi NW 18.4 mph 24.2 mph N/A   Clear
6:53 PM 60.1 °F 44.1 °F 55% 30.23 in 10.0 mi NW 19.6 mph 26.5 mph N/A   Clear
7:53 PM 59.0 °F 41.0 °F 51% 30.25 in 10.0 mi NW 23.0 mph 31.1 mph N/A   Clear
8:53 PM 57.9 °F 37.9 °F 47% 30.27 in 10.0 mi NNW 21.9 mph 28.8 mph N/A   Clear
9:53 PM 57.0 °F 36.0 °F 45% 30.30 in 10.0 mi NNW 15.0 mph 24.2 mph N/A   Clear
10:53 PM 55.0 °F 34.0 °F 45% 30.31 in 10.0 mi NNW 20.7 mph 29.9 mph N/A   Clear
11:53 PM 53.1 °F 33.1 °F 47% 30.32 in 10.0 mi North 21.9 mph 28.8 mph N/A   Clear